SL-16 DEB, 22616

Orbit data source: Space-Track

SL-16 DEB, 22616 is space debris in LEO originally from a launch on Fri, 26 Mar 1993 UTC launched from the Tyuratam Missile And Space Complex (TTMTR). Debris objects in space refer to the collection of defunct objects orbiting the Earth. Examples of debris include non-operational satellites, rocket bodies, and fragments generated from explosions, collisions, or faulty payload assembly.

Loading next visibility...
Identifier
22616, 1993-016AA
Orbit
LEO
Country
Flag of CISCIS
Related business
Manufacturer
Unknown
Mission
Spacecraft
Bus & Motor
Unknown
Mass
Unknown
Launch date (UTC)
1993-03-26 (33 years ago)
Launch vehicle
Unknown
Launch site
Tyuratam Missile And Space Complex (TTMTR)
Object type
Payload
Rocket body
Debris
Shape & HBR
Unknown shape, 0.1 m
Radar Cross Section
Small (<0.1 m²)

Expand to show TLE details & history
Last TLE update: 11 hours ago

TLE from 11 hours ago
0 SL-16 DEB
1 22616U 93016AA  26127.58710256  .00000046  00000-0  84075-4 0  9996
2 22616  70.9970 337.8975 0188475 235.5877 154.2595 13.74017124659510
Epoch: 2026-05-07T14:05Z
TLE epoch observation values (Epoch: 2026-05-07T14:05:25.661Z)
Latitude
28.97758°
Longitude
-87.9524°
Altitude
1,113.732 km
Speed
7.236 km/s
True Right ascension
23h 15m 20s
True Declination
28° 50' 20"
Sunlit
Object was in daylight at epoch
Visualization orbit readout
Latitude
Unknown
Longitude
Unknown
Altitude
Unknown
Speed
Unknown
Apparent Right ascension
Unknown
Apparent Declination
Unknown
Sunlit
N/A
Visualization observer readout
Local Sidereal Time
09:35:28
Azimuth
Unknown
Elevation
Unknown
Doppler factor
Unknown
Orbital elements
Apogee altitude
1,121.891 km
Perigee altitude
844.407 km
Semi-major axis
7,361.286 km
Eccentricity
0.01885
Inclination
70.997°
RAAN
337.8975°
Arg. of periapsis
235.5877°
True anomaly
155.17793°
Mean anomaly
154.2595°
Eccentric anomaly
154.72064°
Mean motion
3.43647 °/min
Orbital period
104.76 mins
BSTAR
0.000084075
Loading maneuver chart data...
Computing Atmospheric mass density...
Loading historical data...
Loading historical data...
Loading historical data...
Loading historical data...
Loading historical data...
Loading historical data...
Loading historical data...

Documentation

Showing up to 5 results
|